Simultaneous Nadir Overpasses (SNOs) Predictions

Prediction of SNOs between LANDSAT-8 and NOAA-19 Satellite Orbit:

Table of predicted SNOs for the next 14.0 days since TLE Epoch: 7/26/2019
Index Date (LANDSAT-8) Time (LANDSAT-8) Lat,Lon (LANDSAT-8) SZA (LANDSAT-8 ) Date (NOAA-19) Time (NOAA-19) Lat,Lon (NOAA-19) SZA (NOAA-19 ) Distance(km) Time Diff (sec)
1 07/26/2019 23:55:12 -78.93, 21.58 119.81 07/26/2019 23:54:07 -78.97, 21.57 119.80 3.95 65
2 07/27/2019 00:44:38 78.94,-170.77 60.20 07/27/2019 00:45:06 78.93,-170.88 60.20 2.51 28
3 07/29/2019 06:18:24 -78.94, -74.17 119.28 07/29/2019 06:18:30 -78.93, -74.14 119.29 1.48 6
4 07/31/2019 11:52:09 78.95, 22.43 61.27 07/31/2019 11:51:55 78.94, 22.50 61.26 1.60 14
5 07/31/2019 12:41:40 -78.79,-170.82 118.93 07/31/2019 12:42:49 -78.76,-168.85 118.81 42.81 69
6 08/02/2019 17:25:55 -78.97, 119.14 118.14 08/02/2019 17:25:18 -78.95, 119.20 118.17 3.00 37
7 08/02/2019 18:15:22 78.93, -73.49 61.81 08/02/2019 18:16:19 78.92, -73.35 61.83 3.02 57
8 08/04/2019 22:59:40 78.99,-144.20 62.47 08/04/2019 22:58:44 78.96,-144.18 62.44 3.03 56
9 08/04/2019 23:49:08 -78.96, 23.27 117.56 08/04/2019 23:49:42 -78.95, 23.19 117.57 2.38 34
10 08/07/2019 04:33:20 -79.27, -45.91 116.54 08/07/2019 04:32:17 -79.32, -50.45 116.79 94.06 63
11 08/07/2019 05:22:54 78.94, 119.72 63.04 08/07/2019 05:23:09 78.98, 119.68 63.07 4.05 15
12 08/09/2019 10:56:41 -78.96,-143.64 116.32 08/09/2019 10:56:30 -78.97,-143.55 116.29 2.74 11




NCC Satellite Simultaneous Nadir Overpasses (SNOs) Prediction Service
